Time,TemperatureF,DewpointF,PressureIn,WindDirection,WindDirectionDegrees,WindSpeedMPH,WindSpeedGustMPH,Humidity,HourlyPrecipIn,Conditions,Clouds,dailyrainin,SoftwareType,DateUTC
2013-11-19 00:01:00,46.0,32.0,30.01,WNW,300,6.9,17.3,58,0.00,CLR,,0.00,WeatherDisplay:10.37,2013-11-19 05:01:00,
2013-11-19 00:02:00,46.0,31.6,30.01,NW,319,11.8,15.0,57,0.00,CLR,,0.00,WeatherDisplay:10.37,2013-11-19 05:02:00,
2013-11-19 00:07:00,45.9,30.6,30.01,WNW,298,13.5,17.3,55,0.00,CLR,,0.00,WeatherDisplay:10.37,2013-11-19 05:07:00,
2013-11-19 00:12:00,45.8,30.5,30.01,NW,312,5.9,11.5,55,0.00,CLR,,0.00,WeatherDisplay:10.37,2013-11-19 05:12:00,
2013-11-19 00:17:00,45.7,30.9,30.01,WNW,289,6.5,17.3,56,0.00,CLR,,0.00,WeatherDisplay:10.37,2013-11-19 05:17:00,
2013-11-19 00:22:00,45.6,30.8,30.01,WNW,291,2.2,16.1,56,0.00,CLR,,0.00,WeatherDisplay:10.37,2013-11-19 05:22:00,
2013-11-19 00:27:00,45.4,30.6,30.01,West,274,2.0,11.5,56,0.00,CLR,,0.00,WeatherDisplay:10.37,2013-11-19 05:27:00,
2013-11-19 00:32:00,45.3,30.5,30.01,WNW,290,3.4,10.4,56,0.00,CLR,,0.00,WeatherDisplay:10.37,2013-11-19 05:32:00,
2013-11-19 00:37:00,45.3,30.1,30.01,NW,316,3.9,10.4,55,0.00,CLR,,0.00,WeatherDisplay:10.37,2013-11-19 05:37:00,
2013-11-19 00:42:00,45.3,30.5,30.01,WNW,301,2.0,3.5,56,0.00,CLR,,0.00,WeatherDisplay:10.37,2013-11-19 05:42:00,
2013-11-19 00:47:00,45.0,30.2,30.01,NW,312,1.4,5.8,56,0.00,CLR,,0.00,WeatherDisplay:10.37,2013-11-19 05:47:00,
2013-11-19 00:52:00,45.0,30.2,30.01,NW,309,3.8,11.5,56,0.00,CLR,,0.00,WeatherDisplay:10.37,2013-11-19 05:52:00,
2013-11-19 00:57:00,45.0,30.7,30.01,WNW,296,4.7,11.5,57,0.00,CLR,,0.00,WeatherDisplay:10.37,2013-11-19 05:57:00,
2013-11-19 01:02:00,44.7,30.4,30.01,NW,314,5.8,12.7,57,0.00,,,0.00,WeatherDisplay:10.37,2013-11-19 06:02:00,
2013-11-19 01:07:00,44.7,30.8,30.01,NW,319,5.8,15.0,58,0.00,,,0.00,WeatherDisplay:10.37,2013-11-19 06:07:00,
2013-11-19 01:12:00,44.5,30.6,30.01,NNW,337,3.6,10.4,58,0.00,,,0.00,WeatherDisplay:10.37,2013-11-19 06:12:00,
2013-11-19 01:17:00,44.4,30.5,30.01,WSW,256,5.0,12.7,58,0.00,,,0.00,WeatherDisplay:10.37,2013-11-19 06:17:00,
2013-11-19 01:22:00,44.3,30.4,30.01,NNW,343,6.0,12.7,58,0.00,,,0.00,WeatherDisplay:10.37,2013-11-19 06:22:00,
2013-11-19 01:27:00,44.3,30.4,30.00,NNW,327,9.8,17.3,58,0.00,,,0.00,WeatherDisplay:10.37,2013-11-19 06:27:00,
2013-11-19 01:32:00,44.3,30.0,30.01,NNW,343,10.1,19.6,57,0.00,,,0.00,WeatherDisplay:10.37,2013-11-19 06:32:00,
2013-11-19 01:37:00,44.2,30.3,30.00,NW,316,2.6,10.4,58,0.00,,,0.00,WeatherDisplay:10.37,2013-11-19 06:37:00,
2013-11-19 01:42:00,44.0,30.6,30.01,WNW,300,4.1,11.5,59,0.00,,,0.00,WeatherDisplay:10.37,2013-11-19 06:42:00,
2013-11-19 01:47:00,43.9,30.5,30.01,West,270,2.3,4.0,59,0.00,,,0.00,WeatherDisplay:10.37,2013-11-19 06:47:00,
2013-11-19 01:52:00,43.8,30.0,30.01,NNW,341,2.2,10.4,58,0.00,,,0.00,WeatherDisplay:10.37,2013-11-19 06:52:00,
2013-11-19 01:57:00,43.7,29.9,30.00,NW,317,8.1,19.6,58,0.00,,,0.00,WeatherDisplay:10.37,2013-11-19 06:57:00,
2013-11-19 02:02:00,43.6,29.8,30.00,NW,312,1.1,4.6,58,0.00,CLR,,0.00,WeatherDisplay:10.37,2013-11-19 07:02:00,
2013-11-19 02:07:00,43.4,30.0,30.00,WNW,303,2.8,7.0,59,0.00,CLR,,0.00,WeatherDisplay:10.37,2013-11-19 07:07:00,
2013-11-19 02:12:00,43.4,30.0,30.00,WNW,301,2.2,3.5,59,0.00,CLR,,0.00,WeatherDisplay:10.37,2013-11-19 07:12:00,
2013-11-19 02:17:00,43.3,29.9,30.00,West,273,5.2,17.3,59,0.00,CLR,,0.00,WeatherDisplay:10.37,2013-11-19 07:17:00,
2013-11-19 02:23:00,43.2,29.4,30.00,NW,312,2.4,6.9,58,0.00,CLR,,0.00,WeatherDisplay:10.37,2013-11-19 07:23:00,
2013-11-19 02:28:00,43.1,29.7,30.00,NW,308,5.0,9.2,59,0.00,CLR,,0.00,WeatherDisplay:10.37,2013-11-19 07:28:00,
2013-11-19 02:33:00,43.1,29.7,30.00,NW,308,1.3,16.1,59,0.00,CLR,,0.00,WeatherDisplay:10.37,2013-11-19 07:33:00,
2013-11-19 02:38:00,43.1,29.7,30.00,WNW,302,1.8,3.5,59,0.00,CLR,,0.00,WeatherDisplay:10.37,2013-11-19 07:38:00,
2013-11-19 02:43:00,42.9,29.1,30.00,NW,316,4.7,10.4,58,0.00,CLR,,0.00,WeatherDisplay:10.37,2013-11-19 07:43:00,
2013-11-19 02:48:00,42.9,29.1,30.00,NNW,331,5.1,21.0,58,0.00,CLR,,0.00,WeatherDisplay:10.37,2013-11-19 07:48:00,
2013-11-19 02:53:00,42.9,28.7,30.00,NNW,331,7.0,15.0,57,0.00,CLR,,0.00,WeatherDisplay:10.37,2013-11-19 07:53:00,
2013-11-19 02:58:00,42.9,28.7,30.00,NW,321,0.8,2.3,57,0.00,CLR,,0.00,WeatherDisplay:10.37,2013-11-19 07:58:00,
2013-11-19 03:03:00,42.7,28.5,30.00,East,81,0.6,7.0,57,0.00,,,0.00,WeatherDisplay:10.37,2013-11-19 08:03:00,
2013-11-19 03:08:00,42.6,28.4,30.00,NNW,339,0.3,2.3,57,0.00,,,0.00,WeatherDisplay:10.37,2013-11-19 08:08:00,
2013-11-19 03:13:00,42.4,28.2,30.00,West,266,2.5,2.5,57,0.00,,,0.00,WeatherDisplay:10.37,2013-11-19 08:13:00,
2013-11-19 03:18:00,42.3,28.1,30.00,NW,306,4.6,11.5,57,0.00,,,0.00,WeatherDisplay:10.37,2013-11-19 08:18:00,
2013-11-19 03:23:00,42.2,28.0,30.00,NW,309,4.8,15.0,57,0.00,,,0.00,WeatherDisplay:10.37,2013-11-19 08:23:00,
2013-11-19 03:28:00,42.1,27.9,30.01,NNE,29,0.0,0.0,57,0.00,,,0.00,WeatherDisplay:10.37,2013-11-19 08:28:00,
2013-11-19 03:33:00,42.0,27.4,30.01,NNW,336,0.1,4.6,56,0.00,,,0.00,WeatherDisplay:10.37,2013-11-19 08:33:00,
2013-11-19 03:38:00,42.0,27.9,30.02,WNW,282,0.0,0.0,57,0.00,,,0.00,WeatherDisplay:10.37,2013-11-19 08:38:00,
2013-11-19 03:43:00,41.8,27.2,30.01,NW,306,1.3,9.2,56,0.00,,,0.00,WeatherDisplay:10.37,2013-11-19 08:43:00,
2013-11-19 03:48:00,41.8,27.2,30.02,NW,321,0.4,10.4,56,0.00,,,0.00,WeatherDisplay:10.37,2013-11-19 08:48:00,
2013-11-19 03:53:00,41.8,26.8,30.02,NW,304,0.0,0.0,55,0.00,,,0.00,WeatherDisplay:10.37,2013-11-19 08:53:00,
2013-11-19 03:58:00,41.6,26.6,30.01,WSW,258,0.0,0.0,55,0.00,,,0.00,WeatherDisplay:10.37,2013-11-19 08:58:00,
2013-11-19 04:03:00,41.4,26.9,30.02,NNW,343,3.0,3.5,56,0.00,,,0.00,WeatherDisplay:10.37,2013-11-19 09:03:00,
2013-11-19 04:08:00,41.4,26.4,30.01,NW,314,3.0,10.4,55,0.00,,,0.00,WeatherDisplay:10.37,2013-11-19 09:08:00,
2013-11-19 04:13:00,41.5,26.5,30.01,WNW,283,2.6,13.0,55,0.00,,,0.00,WeatherDisplay:10.37,2013-11-19 09:13:00,
2013-11-19 04:18:00,41.4,26.4,30.01,NW,321,0.3,9.2,55,0.00,,,0.00,WeatherDisplay:10.37,2013-11-19 09:18:00,
2013-11-19 04:23:00,41.2,26.7,30.02,NNE,25,0.0,2.3,56,0.00,,,0.00,WeatherDisplay:10.37,2013-11-19 09:23:00,
2013-11-19 04:28:00,41.1,26.6,30.01,NNE,15,0.2,3.5,56,0.00,,,0.00,WeatherDisplay:10.37,2013-11-19 09:28:00,
2013-11-19 04:33:00,41.1,26.6,30.01,NW,316,0.0,1.2,56,0.00,,,0.00,WeatherDisplay:10.37,2013-11-19 09:33:00,
2013-11-19 04:38:00,41.0,26.5,30.02,NE,50,0.3,3.5,56,0.00,,,0.00,WeatherDisplay:10.37,2013-11-19 09:38:00,
2013-11-19 04:43:00,40.9,26.4,30.02,West,267,0.5,4.6,56,0.00,,,0.00,WeatherDisplay:10.37,2013-11-19 09:43:00,
2013-11-19 04:48:00,40.9,26.4,30.02,NNW,333,2.5,15.0,56,0.00,,,0.00,WeatherDisplay:10.37,2013-11-19 09:48:00,
2013-11-19 04:53:00,40.9,26.0,30.03,NW,306,1.3,12.7,55,0.00,,,0.00,WeatherDisplay:10.37,2013-11-19 09:53:00,
2013-11-19 04:58:00,41.0,25.6,30.03,NNW,348,0.8,18.4,54,0.00,,,0.00,WeatherDisplay:10.37,2013-11-19 09:58:00,
2013-11-19 05:03:00,40.9,26.0,30.03,NNW,337,0.0,0.0,55,0.00,,,0.00,WeatherDisplay:10.37,2013-11-19 10:03:00,
2013-11-19 05:08:00,40.6,26.1,30.03,South,178,0.0,6.9,56,0.00,,,0.00,WeatherDisplay:10.37,2013-11-19 10:08:00,
2013-11-19 05:13:00,40.6,25.7,30.04,NW,323,0.0,0.0,55,0.00,,,0.00,WeatherDisplay:10.37,2013-11-19 10:13:00,
2013-11-19 05:18:00,40.5,25.6,30.03,NW,326,0.2,5.8,55,0.00,,,0.00,WeatherDisplay:10.37,2013-11-19 10:18:00,
2013-11-19 05:23:00,40.5,25.6,30.04,WNW,298,0.0,0.0,55,0.00,,,0.00,WeatherDisplay:10.37,2013-11-19 10:23:00,
2013-11-19 05:28:00,40.3,25.4,30.04,NW,315,0.0,0.0,55,0.00,,,0.00,WeatherDisplay:10.37,2013-11-19 10:28:00,
2013-11-19 05:33:00,40.2,25.3,30.05,SE,144,0.0,0.0,55,0.00,,,0.00,WeatherDisplay:10.37,2013-11-19 10:33:00,
2013-11-19 05:38:00,40.1,25.6,30.05,SSE,157,0.0,0.0,56,0.00,,,0.00,WeatherDisplay:10.37,2013-11-19 10:38:00,
2013-11-19 05:43:00,39.9,25.0,30.05,ESE,113,0.0,0.0,55,0.00,,,0.00,WeatherDisplay:10.37,2013-11-19 10:43:00,
2013-11-19 05:48:00,39.7,25.3,30.05,SSW,192,0.0,0.0,56,0.00,,,0.00,WeatherDisplay:10.37,2013-11-19 10:48:00,
2013-11-19 05:53:00,39.6,25.6,30.05,WNW,282,0.0,0.0,57,0.00,,,0.00,WeatherDisplay:10.37,2013-11-19 10:53:00,
2013-11-19 05:58:00,39.6,25.2,30.06,WNW,282,0.0,0.0,56,0.00,,,0.00,WeatherDisplay:10.37,2013-11-19 10:58:00,
2013-11-19 06:03:00,39.6,24.7,30.06,NW,305,0.0,0.0,55,0.00,CLR,,0.00,WeatherDisplay:10.37,2013-11-19 11:03:00,
2013-11-19 06:08:00,39.7,24.8,30.06,WNW,291,0.0,0.0,55,0.00,CLR,,0.00,WeatherDisplay:10.37,2013-11-19 11:08:00,
2013-11-19 06:13:00,39.7,24.8,30.06,WNW,294,0.0,1.2,55,0.00,CLR,,0.00,WeatherDisplay:10.37,2013-11-19 11:13:00,
2013-11-19 06:18:00,39.6,25.6,30.07,WNW,292,1.5,4.6,57,0.00,CLR,,0.00,WeatherDisplay:10.37,2013-11-19 11:18:00,
2013-11-19 06:23:00,39.6,25.2,30.07,NW,304,0.7,3.5,56,0.00,CLR,,0.00,WeatherDisplay:10.37,2013-11-19 11:23:00,
2013-11-19 06:28:00,39.4,25.4,30.07,WNW,291,0.0,3.5,57,0.00,CLR,,0.00,WeatherDisplay:10.37,2013-11-19 11:28:00,
2013-11-19 06:33:00,39.3,24.9,30.07,West,262,2.8,6.9,56,0.00,CLR,,0.00,WeatherDisplay:10.37,2013-11-19 11:33:00,
2013-11-19 06:38:00,39.2,25.2,30.07,WNW,302,4.0,8.0,57,0.00,CLR,,0.00,WeatherDisplay:10.37,2013-11-19 11:38:00,
2013-11-19 06:43:00,39.2,24.8,30.07,WNW,286,0.0,0.0,56,0.00,CLR,,0.00,WeatherDisplay:10.37,2013-11-19 11:43:00,
2013-11-19 06:48:00,39.1,24.7,30.08,NNW,327,1.9,5.0,56,0.00,CLR,,0.00,WeatherDisplay:10.37,2013-11-19 11:48:00,
2013-11-19 06:53:00,38.9,24.9,30.08,NW,313,6.4,12.0,57,0.00,CLR,,0.00,WeatherDisplay:10.37,2013-11-19 11:53:00,
2013-11-19 06:58:00,38.9,25.4,30.08,WNW,300,5.6,11.5,58,0.00,CLR,,0.00,WeatherDisplay:10.37,2013-11-19 11:58:00,
2013-11-19 07:03:00,38.8,25.7,30.09,WNW,288,4.4,11.5,59,0.00,CLR,,0.00,WeatherDisplay:10.37,2013-11-19 12:03:00,
2013-11-19 07:08:00,38.7,25.2,30.08,West,275,4.8,6.9,58,0.00,CLR,,0.00,WeatherDisplay:10.37,2013-11-19 12:08:00,
2013-11-19 07:13:00,38.7,25.2,30.09,NW,308,5.1,11.5,58,0.00,CLR,,0.00,WeatherDisplay:10.37,2013-11-19 12:13:00,
2013-11-19 07:18:00,38.6,25.5,30.09,NW,304,2.1,9.0,59,0.00,CLR,,0.00,WeatherDisplay:10.37,2013-11-19 12:18:00,
2013-11-19 07:23:00,38.6,25.5,30.09,NW,314,5.8,17.3,59,0.00,CLR,,0.00,WeatherDisplay:10.37,2013-11-19 12:23:00,
2013-11-19 07:29:00,38.5,25.4,30.10,NNW,329,0.1,1.0,59,0.00,CLR,,0.00,WeatherDisplay:10.37,2013-11-19 12:29:00,
2013-11-19 07:34:00,38.4,25.7,30.09,West,279,3.1,5.8,60,0.00,CLR,,0.00,WeatherDisplay:10.37,2013-11-19 12:34:00,
2013-11-19 07:39:00,38.5,25.4,30.10,NNW,341,1.7,4.0,59,0.00,CLR,,0.00,WeatherDisplay:10.37,2013-11-19 12:39:00,
2013-11-19 07:44:00,38.4,25.7,30.10,NW,304,1.5,3.5,60,0.00,CLR,,0.00,WeatherDisplay:10.37,2013-11-19 12:44:00,
2013-11-19 07:49:00,38.4,25.7,30.10,WNW,303,0.4,1.2,60,0.00,CLR,,0.00,WeatherDisplay:10.37,2013-11-19 12:49:00,
2013-11-19 07:54:00,38.5,25.4,30.10,NNW,333,3.0,6.9,59,0.00,CLR,,0.00,WeatherDisplay:10.37,2013-11-19 12:54:00,
2013-11-19 07:59:00,38.5,25.4,30.11,NW,321,1.1,3.5,59,0.00,CLR,,0.00,WeatherDisplay:10.37,2013-11-19 12:59:00,
2013-11-19 08:04:00,38.6,25.5,30.10,NW,310,3.7,9.2,59,0.00,CLR,,0.00,WeatherDisplay:10.37,2013-11-19 13:04:00,
2013-11-19 08:09:00,38.6,25.1,30.11,NNW,329,0.9,3.5,58,0.00,CLR,,0.00,WeatherDisplay:10.37,2013-11-19 13:09:00,
2013-11-19 08:14:00,38.5,25.4,30.11,NW,325,1.8,4.0,59,0.00,CLR,,0.00,WeatherDisplay:10.37,2013-11-19 13:14:00,
2013-11-19 08:19:00,38.5,25.0,30.12,NNW,331,1.4,3.5,58,0.00,CLR,,0.00,WeatherDisplay:10.37,2013-11-19 13:19:00,
2013-11-19 08:24:00,38.7,25.6,30.12,WNW,297,0.0,0.0,59,0.00,CLR,,0.00,WeatherDisplay:10.37,2013-11-19 13:24:00,
2013-11-19 08:29:00,38.8,25.7,30.12,NNW,337,0.0,0.0,59,0.00,CLR,,0.00,WeatherDisplay:10.37,2013-11-19 13:29:00,
2013-11-19 08:34:00,38.7,25.6,30.12,WNW,287,0.8,2.3,59,0.00,CLR,,0.00,WeatherDisplay:10.37,2013-11-19 13:34:00,
2013-11-19 08:39:00,38.9,25.8,30.13,WNW,298,0.9,0.0,59,0.00,CLR,,0.00,WeatherDisplay:10.37,2013-11-19 13:39:00,
2013-11-19 08:44:00,39.4,25.8,30.13,NW,310,0.0,0.0,58,0.00,CLR,,0.00,WeatherDisplay:10.37,2013-11-19 13:44:00,
2013-11-19 08:49:00,39.9,25.9,30.13,NW,309,0.0,0.0,57,0.00,CLR,,0.00,WeatherDisplay:10.37,2013-11-19 13:49:00,
2013-11-19 08:54:00,40.4,25.9,30.14,WNW,303,0.0,0.0,56,0.00,CLR,,0.00,WeatherDisplay:10.37,2013-11-19 13:54:00,
2013-11-19 08:59:00,41.1,27.4,30.14,NW,308,0.0,0.0,58,0.00,CLR,,0.00,WeatherDisplay:10.37,2013-11-19 13:59:00,
2013-11-19 09:04:00,41.4,26.0,30.14,NW,306,2.0,4.6,54,0.00,CLR,,0.00,WeatherDisplay:10.37,2013-11-19 14:04:00,
2013-11-19 09:09:00,40.9,26.4,30.15,WNW,291,0.0,1.2,56,0.00,CLR,,0.00,WeatherDisplay:10.37,2013-11-19 14:09:00,
2013-11-19 09:14:00,40.8,26.3,30.15,WNW,297,1.5,2.3,56,0.00,CLR,,0.00,WeatherDisplay:10.37,2013-11-19 14:14:00,
2013-11-19 09:19:00,41.2,26.2,30.15,WNW,289,0.5,1.2,55,0.00,CLR,,0.00,WeatherDisplay:10.37,2013-11-19 14:19:00,
2013-11-19 09:24:00,41.7,26.7,30.16,NW,305,1.4,3.5,55,0.00,CLR,,0.00,WeatherDisplay:10.37,2013-11-19 14:24:00,
2013-11-19 09:28:00,41.8,25.9,30.16,NW,304,0.0,5.8,53,0.00,CLR,,0.00,WeatherDisplay:10.37,2013-11-19 14:28:00,
2013-11-19 09:33:00,41.8,25.9,30.16,WNW,289,2.2,3.5,53,0.00,CLR,,0.00,WeatherDisplay:10.37,2013-11-19 14:33:00,
2013-11-19 09:38:00,42.0,25.6,30.16,NW,312,3.5,9.2,52,0.00,CLR,,0.00,WeatherDisplay:10.37,2013-11-19 14:38:00,
2013-11-19 09:43:00,42.1,26.6,30.16,NW,305,0.4,2.0,54,0.00,CLR,,0.00,WeatherDisplay:10.37,2013-11-19 14:43:00,
2013-11-19 09:48:00,42.4,26.5,30.16,WNW,298,2.6,6.9,53,0.00,CLR,,0.00,WeatherDisplay:10.37,2013-11-19 14:48:00,
2013-11-19 09:53:00,42.6,27.1,30.16,West,263,1.8,3.5,54,0.00,CLR,,0.00,WeatherDisplay:10.37,2013-11-19 14:53:00,
2013-11-19 09:58:00,42.9,28.3,30.16,West,276,0.9,5.8,56,0.00,CLR,,0.00,WeatherDisplay:10.37,2013-11-19 14:58:00,
2013-11-19 10:03:00,43.4,27.4,30.16,WNW,300,1.3,3.5,53,0.00,CLR,,0.00,WeatherDisplay:10.37,2013-11-19 15:03:00,
2013-11-19 10:08:00,43.4,26.5,30.16,WNW,294,0.0,0.0,51,0.00,CLR,,0.00,WeatherDisplay:10.37,2013-11-19 15:08:00,
2013-11-19 10:13:00,43.4,26.0,30.16,WNW,294,2.0,5.8,50,0.00,CLR,,0.00,WeatherDisplay:10.37,2013-11-19 15:13:00,
2013-11-19 10:18:00,43.7,26.7,30.16,WNW,298,0.5,2.3,51,0.00,CLR,,0.00,WeatherDisplay:10.37,2013-11-19 15:18:00,
2013-11-19 10:23:00,44.1,27.1,30.16,WNW,283,2.6,6.9,51,0.00,CLR,,0.00,WeatherDisplay:10.37,2013-11-19 15:23:00,
2013-11-19 10:28:00,44.4,28.3,30.17,NW,308,1.0,9.2,53,0.00,CLR,,0.00,WeatherDisplay:10.37,2013-11-19 15:28:00,
2013-11-19 10:33:00,45.0,27.0,30.17,West,263,0.0,3.5,49,0.00,CLR,,0.00,WeatherDisplay:10.37,2013-11-19 15:33:00,
2013-11-19 10:38:00,44.9,26.9,30.17,WNW,291,1.0,6.9,49,0.00,CLR,,0.00,WeatherDisplay:10.37,2013-11-19 15:38:00,
2013-11-19 10:43:00,45.0,27.0,30.17,West,277,2.0,10.0,49,0.00,CLR,,0.00,WeatherDisplay:10.37,2013-11-19 15:43:00,
2013-11-19 10:48:00,45.3,27.2,30.17,WNW,302,4.8,9.2,49,0.00,CLR,,0.00,WeatherDisplay:10.37,2013-11-19 15:48:00,
2013-11-19 10:53:00,45.5,27.4,30.17,WNW,292,3.4,5.0,49,0.00,CLR,,0.00,WeatherDisplay:10.37,2013-11-19 15:53:00,
2013-11-19 10:58:00,45.7,27.6,30.17,West,261,1.1,5.8,49,0.00,CLR,,0.00,WeatherDisplay:10.37,2013-11-19 15:58:00,
2013-11-19 11:03:00,46.3,28.2,30.17,WSW,248,1.5,3.5,49,0.00,CLR,,0.00,WeatherDisplay:10.37,2013-11-19 16:03:00,
2013-11-19 11:08:00,46.3,27.7,30.17,WSW,258,0.0,3.5,48,0.00,CLR,,0.00,WeatherDisplay:10.37,2013-11-19 16:08:00,
2013-11-19 11:13:00,46.5,27.8,30.17,WNW,294,0.0,0.0,48,0.00,CLR,,0.00,WeatherDisplay:10.37,2013-11-19 16:13:00,
2013-11-19 11:18:00,46.6,27.4,30.17,WNW,293,1.4,0.0,47,0.00,CLR,,0.00,WeatherDisplay:10.37,2013-11-19 16:18:00,
2013-11-19 11:23:00,46.8,27.1,30.17,NW,313,0.0,3.5,46,0.00,CLR,,0.00,WeatherDisplay:10.37,2013-11-19 16:23:00,
2013-11-19 11:28:00,46.7,27.5,30.17,NW,308,0.0,0.0,47,0.00,CLR,,0.00,WeatherDisplay:10.37,2013-11-19 16:28:00,
2013-11-19 11:33:00,47.2,28.5,30.17,WSW,248,0.0,1.2,48,0.00,CLR,,0.00,WeatherDisplay:10.37,2013-11-19 16:33:00,
2013-11-19 11:38:00,47.6,27.8,30.17,West,276,0.0,0.0,46,0.00,CLR,,0.00,WeatherDisplay:10.37,2013-11-19 16:38:00,
2013-11-19 11:43:00,47.4,27.1,30.16,West,275,0.0,0.0,45,0.00,CLR,,0.00,WeatherDisplay:10.37,2013-11-19 16:43:00,
2013-11-19 11:48:00,47.6,28.9,30.16,West,259,0.1,3.5,48,0.00,CLR,,0.00,WeatherDisplay:10.37,2013-11-19 16:48:00,
2013-11-19 11:53:00,47.8,28.0,30.16,NW,304,2.2,9.2,46,0.00,CLR,,0.00,WeatherDisplay:10.37,2013-11-19 16:53:00,
2013-11-19 11:58:00,48.0,27.6,30.16,NW,309,2.3,4.6,45,0.00,CLR,,0.00,WeatherDisplay:10.37,2013-11-19 16:58:00,
2013-11-19 12:03:00,48.1,27.2,30.16,NW,310,1.5,4.6,44,0.00,CLR,,0.00,WeatherDisplay:10.37,2013-11-19 17:03:00,
2013-11-19 12:08:00,48.5,29.2,30.16,West,276,1.2,3.5,47,0.00,CLR,,0.00,WeatherDisplay:10.37,2013-11-19 17:08:00,
2013-11-19 12:13:00,48.7,27.7,30.15,SW,231,0.6,3.5,44,0.00,CLR,,0.00,WeatherDisplay:10.37,2013-11-19 17:13:00,
2013-11-19 12:18:00,49.4,28.4,30.15,SW,229,0.4,3.5,44,0.00,CLR,,0.00,WeatherDisplay:10.37,2013-11-19 17:18:00,
2013-11-19 12:23:00,49.6,27.4,30.15,WNW,296,1.2,3.5,42,0.00,CLR,,0.00,WeatherDisplay:10.37,2013-11-19 17:23:00,
2013-11-19 12:28:00,49.5,27.9,30.15,NW,305,0.5,2.3,43,0.00,CLR,,0.00,WeatherDisplay:10.37,2013-11-19 17:28:00,
2013-11-19 12:34:00,49.6,27.4,30.14,NW,324,0.3,2.3,42,0.00,CLR,,0.00,WeatherDisplay:10.37,2013-11-19 17:34:00,
2013-11-19 12:35:00,49.6,28.0,30.14,NW,319,0.1,2.3,43,0.00,CLR,,0.00,WeatherDisplay:10.37,2013-11-19 17:35:00,
2013-11-19 12:40:00,49.8,27.6,30.15,NW,326,2.1,5.8,42,0.00,CLR,,0.00,WeatherDisplay:10.37,2013-11-19 17:40:00,
2013-11-19 12:46:00,50.0,27.8,30.15,NW,304,0.0,0.0,42,0.00,CLR,,0.00,WeatherDisplay:10.37,2013-11-19 17:46:00,
2013-11-19 12:51:00,50.4,28.7,30.14,WNW,287,0.1,0.0,43,0.00,CLR,,0.00,WeatherDisplay:10.37,2013-11-19 17:51:00,
2013-11-19 12:56:00,50.7,29.0,30.14,WSW,244,0.0,0.0,43,0.00,CLR,,0.00,WeatherDisplay:10.37,2013-11-19 17:56:00,
2013-11-19 13:01:00,51.2,30.0,30.14,SSE,155,0.0,1.2,44,0.00,CLR,,0.00,WeatherDisplay:10.37,2013-11-19 18:01:00,
2013-11-19 13:06:00,51.7,28.7,30.14,West,272,0.5,3.5,41,0.00,CLR,,0.00,WeatherDisplay:10.37,2013-11-19 18:06:00,
2013-11-19 13:11:00,51.8,29.4,30.14,WNW,302,0.6,3.5,42,0.00,CLR,,0.00,WeatherDisplay:10.37,2013-11-19 18:11:00,
2013-11-19 13:16:00,51.7,28.7,30.14,NW,321,0.0,0.0,41,0.00,CLR,,0.00,WeatherDisplay:10.37,2013-11-19 18:16:00,
2013-11-19 13:21:00,52.0,29.6,30.14,WSW,237,0.0,3.0,42,0.00,CLR,,0.00,WeatherDisplay:10.37,2013-11-19 18:21:00,
2013-11-19 13:26:00,52.1,29.1,30.14,West,270,0.8,2.3,41,0.00,CLR,,0.00,WeatherDisplay:10.37,2013-11-19 18:26:00,
2013-11-19 13:31:00,51.9,28.9,30.13,WSW,254,0.6,2.3,41,0.00,CLR,,0.00,WeatherDisplay:10.37,2013-11-19 18:31:00,
2013-11-19 13:36:00,52.1,28.5,30.14,WSW,239,0.0,0.0,40,0.00,CLR,,0.00,WeatherDisplay:10.37,2013-11-19 18:36:00,
2013-11-19 13:41:00,52.6,28.9,30.13,WSW,252,0.0,0.0,40,0.00,CLR,,0.00,WeatherDisplay:10.37,2013-11-19 18:41:00,
2013-11-19 13:46:00,52.5,28.8,30.13,WSW,258,0.0,0.0,40,0.00,CLR,,0.00,WeatherDisplay:10.37,2013-11-19 18:46:00,
2013-11-19 13:51:00,52.3,28.7,30.13,WSW,258,0.0,0.0,40,0.00,CLR,,0.00,WeatherDisplay:10.37,2013-11-19 18:51:00,
2013-11-19 13:56:00,51.8,28.8,30.13,WSW,258,0.0,0.0,41,0.00,CLR,,0.00,WeatherDisplay:10.37,2013-11-19 18:56:00,
2013-11-19 14:01:00,51.4,28.5,30.13,West,261,0.0,1.2,41,0.00,CLR,,0.00,WeatherDisplay:10.37,2013-11-19 19:01:00,
2013-11-19 14:05:00,51.2,28.3,30.13,West,264,0.0,0.0,41,0.00,CLR,,0.00,WeatherDisplay:10.37,2013-11-19 19:05:00,
2013-11-19 14:10:00,51.3,28.4,30.12,West,264,0.0,0.0,41,0.00,CLR,,0.00,WeatherDisplay:10.37,2013-11-19 19:10:00,
2013-11-19 14:15:00,51.7,29.3,30.13,SSW,208,0.0,0.0,42,0.00,CLR,,0.00,WeatherDisplay:10.37,2013-11-19 19:15:00,
2013-11-19 14:20:00,52.2,29.2,30.13,SW,225,1.2,4.6,41,0.00,CLR,,0.00,WeatherDisplay:10.37,2013-11-19 19:20:00,
2013-11-19 14:25:00,52.6,29.5,30.13,SW,233,0.0,0.0,41,0.00,CLR,,0.00,WeatherDisplay:10.37,2013-11-19 19:25:00,
2013-11-19 14:30:00,52.9,29.8,30.13,West,269,0.1,0.0,41,0.00,CLR,,0.00,WeatherDisplay:10.37,2013-11-19 19:30:00,
2013-11-19 14:35:00,53.0,29.9,30.13,West,265,0.0,0.0,41,0.00,CLR,,0.00,WeatherDisplay:10.37,2013-11-19 19:35:00,
2013-11-19 14:40:00,52.9,29.2,30.13,SW,233,0.3,0.0,40,0.00,CLR,,0.00,WeatherDisplay:10.37,2013-11-19 19:40:00,
2013-11-19 14:45:00,52.9,29.2,30.13,SW,223,0.9,2.3,40,0.00,CLR,,0.00,WeatherDisplay:10.37,2013-11-19 19:45:00,
2013-11-19 14:50:00,52.9,29.2,30.13,SSE,166,0.0,0.0,40,0.00,CLR,,0.00,WeatherDisplay:10.37,2013-11-19 19:50:00,
2013-11-19 14:55:00,52.7,29.6,30.13,SSW,210,0.0,0.0,41,0.00,CLR,,0.00,WeatherDisplay:10.37,2013-11-19 19:55:00,
2013-11-19 15:00:00,52.6,28.3,30.13,West,281,0.0,2.3,39,0.00,CLR,,0.00,WeatherDisplay:10.37,2013-11-19 20:00:00,
2013-11-19 15:05:00,52.6,28.9,30.13,West,275,0.0,0.0,40,0.00,CLR,,0.00,WeatherDisplay:10.37,2013-11-19 20:05:00,
2013-11-19 15:10:00,52.7,29.0,30.13,NW,309,0.0,0.0,40,0.00,CLR,,0.00,WeatherDisplay:10.37,2013-11-19 20:10:00,
2013-11-19 15:15:00,52.5,28.8,30.12,WSW,257,0.0,0.0,40,0.00,CLR,,0.00,WeatherDisplay:10.37,2013-11-19 20:15:00,
2013-11-19 15:20:00,52.5,28.8,30.12,West,264,0.0,0.0,40,0.00,CLR,,0.00,WeatherDisplay:10.37,2013-11-19 20:20:00,
2013-11-19 15:25:00,52.8,28.5,30.13,West,271,2.0,0.0,39,0.00,CLR,,0.00,WeatherDisplay:10.37,2013-11-19 20:25:00,
2013-11-19 15:30:00,52.8,27.9,30.13,West,272,0.1,0.0,38,0.00,CLR,,0.00,WeatherDisplay:10.37,2013-11-19 20:30:00,
2013-11-19 15:35:00,53.1,28.8,30.13,West,272,0.0,0.0,39,0.00,CLR,,0.00,WeatherDisplay:10.37,2013-11-19 20:35:00,
2013-11-19 15:40:00,53.1,28.1,30.13,West,271,0.0,0.0,38,0.00,CLR,,0.00,WeatherDisplay:10.37,2013-11-19 20:40:00,
2013-11-19 15:45:00,52.8,29.1,30.13,West,268,0.0,0.0,40,0.00,CLR,,0.00,WeatherDisplay:10.37,2013-11-19 20:45:00,
2013-11-19 15:50:00,53.0,28.7,30.13,West,266,0.0,0.0,39,0.00,CLR,,0.00,WeatherDisplay:10.37,2013-11-19 20:50:00,
2013-11-19 15:55:00,53.0,29.3,30.13,West,267,0.1,1.2,40,0.00,CLR,,0.00,WeatherDisplay:10.37,2013-11-19 20:55:00,
2013-11-19 16:00:00,52.8,27.9,30.13,West,267,0.0,0.0,38,0.00,CLR,,0.00,WeatherDisplay:10.37,2013-11-19 21:00:00,
2013-11-19 16:05:00,52.5,28.2,30.13,SE,136,0.0,0.0,39,0.00,CLR,,0.00,WeatherDisplay:10.37,2013-11-19 21:05:00,
2013-11-19 16:10:00,52.2,28.0,30.13,SE,131,0.0,3.0,39,0.00,CLR,,0.00,WeatherDisplay:10.37,2013-11-19 21:10:00,
2013-11-19 16:15:00,51.8,28.8,30.13,ESE,117,0.0,0.0,41,0.00,CLR,,0.00,WeatherDisplay:10.37,2013-11-19 21:15:00,
2013-11-19 16:20:00,51.5,29.1,30.13,ESE,114,0.0,0.0,42,0.00,CLR,,0.00,WeatherDisplay:10.37,2013-11-19 21:20:00,
2013-11-19 16:25:00,51.3,29.5,30.13,ESE,115,0.0,0.0,43,0.00,CLR,,0.00,WeatherDisplay:10.37,2013-11-19 21:25:00,
2013-11-19 16:30:00,51.1,29.4,30.13,ESE,115,0.0,0.0,43,0.00,CLR,,0.00,WeatherDisplay:10.37,2013-11-19 21:30:00,
2013-11-19 16:35:00,50.9,29.2,30.13,ESE,113,0.0,0.0,43,0.00,CLR,,0.00,WeatherDisplay:10.37,2013-11-19 21:35:00,
2013-11-19 16:40:00,50.6,28.9,30.13,SE,126,0.4,3.5,43,0.00,CLR,,0.00,WeatherDisplay:10.37,2013-11-19 21:40:00,
2013-11-19 16:45:00,50.2,28.0,30.13,SE,132,1.3,3.5,42,0.00,CLR,,0.00,WeatherDisplay:10.37,2013-11-19 21:45:00,
2013-11-19 16:50:00,49.7,28.1,30.14,SE,127,0.5,2.3,43,0.00,CLR,,0.00,WeatherDisplay:10.37,2013-11-19 21:50:00,
2013-11-19 16:55:00,49.4,27.8,30.14,SE,130,0.0,0.0,43,0.00,CLR,,0.00,WeatherDisplay:10.37,2013-11-19 21:55:00,
2013-11-19 17:00:00,48.9,27.9,30.14,SE,129,0.0,0.0,44,0.00,CLR,,0.00,WeatherDisplay:10.37,2013-11-19 22:00:00,
2013-11-19 17:05:00,48.5,27.6,30.15,SE,129,0.0,0.0,44,0.00,CLR,,0.00,WeatherDisplay:10.37,2013-11-19 22:05:00,
2013-11-19 17:10:00,48.1,27.2,30.15,SE,129,0.0,0.0,44,0.00,CLR,,0.00,WeatherDisplay:10.37,2013-11-19 22:10:00,
2013-11-19 17:15:00,47.8,27.5,30.15,SE,128,0.0,0.0,45,0.00,CLR,,0.00,WeatherDisplay:10.37,2013-11-19 22:15:00,
2013-11-19 17:20:00,47.3,26.5,30.15,SE,127,0.0,0.0,44,0.00,CLR,,0.00,WeatherDisplay:10.37,2013-11-19 22:20:00,
2013-11-19 17:25:00,47.0,26.7,30.15,SE,127,0.0,0.0,45,0.00,CLR,,0.00,WeatherDisplay:10.37,2013-11-19 22:25:00,
2013-11-19 17:30:00,46.6,26.4,30.14,SE,127,0.0,0.0,45,0.00,CLR,,0.00,WeatherDisplay:10.37,2013-11-19 22:30:00,
2013-11-19 17:36:00,46.1,27.0,30.15,SE,127,0.0,0.0,47,0.00,CLR,,0.00,WeatherDisplay:10.37,2013-11-19 22:36:00,
2013-11-19 17:41:00,45.5,27.4,30.14,SE,127,0.0,0.0,49,0.00,CLR,,0.00,WeatherDisplay:10.37,2013-11-19 22:41:00,
2013-11-19 17:46:00,45.0,25.4,30.16,SE,127,0.0,0.0,46,0.00,CLR,,0.00,WeatherDisplay:10.37,2013-11-19 22:46:00,
2013-11-19 17:51:00,45.0,25.4,30.17,SE,127,0.0,0.0,46,0.00,,,0.00,WeatherDisplay:10.37,2013-11-19 22:51:00,
2013-11-19 17:56:00,45.0,28.4,30.17,SE,127,0.0,0.0,52,0.00,,,0.00,WeatherDisplay:10.37,2013-11-19 22:56:00,
2013-11-19 18:01:00,44.7,29.1,30.17,SE,127,0.0,0.0,54,0.00,,,0.00,WeatherDisplay:10.37,2013-11-19 23:01:00,
2013-11-19 18:06:00,44.3,29.1,30.16,SE,127,0.0,0.0,55,0.00,,,0.00,WeatherDisplay:10.37,2013-11-19 23:06:00,
2013-11-19 18:11:00,44.1,28.5,30.16,SE,127,0.0,0.0,54,0.00,,,0.00,WeatherDisplay:10.37,2013-11-19 23:11:00,
2013-11-19 18:16:00,43.9,27.9,30.17,SE,127,0.0,0.0,53,0.00,,,0.00,WeatherDisplay:10.37,2013-11-19 23:16:00,
2013-11-19 18:21:00,43.9,26.4,30.17,SE,127,0.0,0.0,50,0.00,,,0.00,WeatherDisplay:10.37,2013-11-19 23:21:00,
2013-11-19 18:26:00,43.8,27.3,30.16,SE,127,0.0,0.0,52,0.00,,,0.00,WeatherDisplay:10.37,2013-11-19 23:26:00,
2013-11-19 18:31:00,43.8,27.8,30.16,SE,127,0.0,0.0,53,0.00,,,0.00,WeatherDisplay:10.37,2013-11-19 23:31:00,
2013-11-19 18:36:00,43.7,26.7,30.17,SE,127,0.0,0.0,51,0.00,,,0.00,WeatherDisplay:10.37,2013-11-19 23:36:00,
2013-11-19 18:41:00,43.7,25.8,30.17,SE,127,0.0,0.0,49,0.00,,,0.00,WeatherDisplay:10.37,2013-11-19 23:41:00,
2013-11-19 18:46:00,44.1,27.1,30.17,SE,127,0.0,0.0,51,0.00,,,0.00,WeatherDisplay:10.37,2013-11-19 23:46:00,
2013-11-19 18:51:00,44.3,26.3,30.17,ESE,121,0.0,0.0,49,0.00,,,0.00,WeatherDisplay:10.37,2013-11-19 23:51:00,
2013-11-19 18:56:00,44.5,26.5,30.18,ENE,64,0.0,0.0,49,0.00,,,0.00,WeatherDisplay:10.37,2013-11-19 23:56:00,
2013-11-19 19:01:00,44.6,26.6,30.17,ENE,64,0.0,0.0,49,0.00,CLR,,0.00,WeatherDisplay:10.37,2013-11-20 00:01:00,
2013-11-19 19:06:00,44.8,27.3,30.18,ENE,63,0.0,0.0,50,0.00,CLR,,0.00,WeatherDisplay:10.37,2013-11-20 00:06:00,
2013-11-19 19:11:00,44.8,26.8,30.18,ENE,63,0.0,0.0,49,0.00,CLR,,0.00,WeatherDisplay:10.37,2013-11-20 00:11:00,
2013-11-19 19:16:00,44.9,25.9,30.18,ENE,60,1.5,3.5,47,0.00,CLR,,0.00,WeatherDisplay:10.37,2013-11-20 00:16:00,
2013-11-19 19:21:00,45.0,27.0,30.18,ENE,59,0.0,0.0,49,0.00,CLR,,0.00,WeatherDisplay:10.37,2013-11-20 00:21:00,
2013-11-19 19:26:00,45.0,27.0,30.19,ENE,60,0.0,0.0,49,0.00,CLR,,0.00,WeatherDisplay:10.37,2013-11-20 00:26:00,
2013-11-19 19:31:00,44.8,26.8,30.19,ENE,59,0.0,0.0,49,0.00,CLR,,0.00,WeatherDisplay:10.37,2013-11-20 00:31:00,
2013-11-19 19:36:00,44.7,27.2,30.19,ENE,59,0.0,0.0,50,0.00,CLR,,0.00,WeatherDisplay:10.37,2013-11-20 00:36:00,
2013-11-19 19:41:00,44.5,27.5,30.19,NNE,19,0.5,2.0,51,0.00,CLR,,0.00,WeatherDisplay:10.37,2013-11-20 00:41:00,
2013-11-19 19:46:00,44.3,26.3,30.19,NNE,19,0.0,1.2,49,0.00,CLR,,0.00,WeatherDisplay:10.37,2013-11-20 00:46:00,
2013-11-19 19:51:00,44.2,26.7,30.20,NNE,19,0.0,0.0,50,0.00,CLR,,0.00,WeatherDisplay:10.37,2013-11-20 00:51:00,
2013-11-19 19:56:00,43.9,26.4,30.20,NNE,19,0.0,0.0,50,0.00,CLR,,0.00,WeatherDisplay:10.37,2013-11-20 00:56:00,
2013-11-19 20:01:00,43.6,25.7,30.20,NNE,19,0.0,0.0,49,0.00,CLR,,0.00,WeatherDisplay:10.37,2013-11-20 01:01:00,
2013-11-19 20:06:00,43.4,26.9,30.21,NNE,19,0.0,0.0,52,0.00,CLR,,0.00,WeatherDisplay:10.37,2013-11-20 01:06:00,
2013-11-19 20:11:00,43.2,26.3,30.21,NNE,19,0.0,0.0,51,0.00,CLR,,0.00,WeatherDisplay:10.37,2013-11-20 01:11:00,
2013-11-19 20:16:00,43.0,27.5,30.22,NNE,19,0.0,0.0,54,0.00,CLR,,0.00,WeatherDisplay:10.37,2013-11-20 01:16:00,
2013-11-19 20:21:00,42.8,26.8,30.22,NNE,19,0.0,0.0,53,0.00,CLR,,0.00,WeatherDisplay:10.37,2013-11-20 01:21:00,
2013-11-19 20:26:00,42.4,27.8,30.22,NNE,19,0.0,0.0,56,0.00,CLR,,0.00,WeatherDisplay:10.37,2013-11-20 01:26:00,
2013-11-19 20:31:00,42.1,27.1,30.23,NNE,19,0.0,0.0,55,0.00,CLR,,0.00,WeatherDisplay:10.37,2013-11-20 01:31:00,
2013-11-19 20:36:00,41.9,27.8,30.23,NNE,19,0.0,0.0,57,0.00,CLR,,0.00,WeatherDisplay:10.37,2013-11-20 01:36:00,
2013-11-19 20:41:00,41.6,28.3,30.23,NNE,19,0.0,0.0,59,0.00,CLR,,0.00,WeatherDisplay:10.37,2013-11-20 01:41:00,
2013-11-19 20:46:00,41.2,28.4,30.23,NNE,19,0.0,0.0,60,0.00,CLR,,0.00,WeatherDisplay:10.37,2013-11-20 01:46:00,
2013-11-19 20:51:00,41.1,28.3,30.23,NNE,19,0.0,0.0,60,0.00,CLR,,0.00,WeatherDisplay:10.37,2013-11-20 01:51:00,
2013-11-19 20:56:00,40.9,30.4,30.23,NNE,19,0.0,0.0,66,0.00,CLR,,0.00,WeatherDisplay:10.37,2013-11-20 01:56:00,
2013-11-19 21:01:00,40.6,29.7,30.23,NNE,19,0.0,0.0,65,0.00,CLR,,0.00,WeatherDisplay:10.37,2013-11-20 02:01:00,
2013-11-19 21:06:00,40.3,29.1,30.23,NNE,19,0.0,0.0,64,0.00,CLR,,0.00,WeatherDisplay:10.37,2013-11-20 02:06:00,
2013-11-19 21:11:00,40.2,28.6,30.23,NNE,19,0.0,0.0,63,0.00,CLR,,0.00,WeatherDisplay:10.37,2013-11-20 02:11:00,
2013-11-19 21:16:00,40.2,29.0,30.24,NNE,19,0.0,0.0,64,0.00,CLR,,0.00,WeatherDisplay:10.37,2013-11-20 02:16:00,
2013-11-19 21:21:00,40.0,28.0,30.24,NNE,19,0.0,0.0,62,0.00,CLR,,0.00,WeatherDisplay:10.37,2013-11-20 02:21:00,
2013-11-19 21:26:00,39.9,27.9,30.24,NNE,19,0.0,0.0,62,0.00,CLR,,0.00,WeatherDisplay:10.37,2013-11-20 02:26:00,
2013-11-19 21:31:00,39.7,29.6,30.24,NNE,19,0.0,0.0,67,0.00,CLR,,0.00,WeatherDisplay:10.37,2013-11-20 02:31:00,
2013-11-19 21:36:00,39.4,30.4,30.24,NNE,19,0.0,0.0,70,0.00,CLR,,0.00,WeatherDisplay:10.37,2013-11-20 02:36:00,
2013-11-19 21:41:00,38.9,30.3,30.24,NNE,19,0.0,0.0,71,0.00,CLR,,0.00,WeatherDisplay:10.37,2013-11-20 02:41:00,
2013-11-19 21:46:00,38.4,29.8,30.24,NNE,19,0.0,0.0,71,0.00,CLR,,0.00,WeatherDisplay:10.37,2013-11-20 02:46:00,
2013-11-19 21:52:00,37.9,29.3,30.24,NNE,19,0.0,0.0,71,0.00,CLR,,0.00,WeatherDisplay:10.37,2013-11-20 02:52:00,
2013-11-19 21:57:00,37.5,28.6,30.24,NNE,19,0.0,0.0,70,0.00,CLR,,0.00,WeatherDisplay:10.37,2013-11-20 02:57:00,
2013-11-19 22:02:00,37.1,28.6,30.25,NNE,19,0.0,0.0,71,0.00,CLR,,0.00,WeatherDisplay:10.37,2013-11-20 03:02:00,
2013-11-19 22:07:00,36.9,28.7,30.24,NNE,19,0.0,0.0,72,0.00,CLR,,0.00,WeatherDisplay:10.37,2013-11-20 03:07:00,
2013-11-19 22:12:00,36.8,29.0,30.24,NNE,19,0.0,0.0,73,0.00,CLR,,0.00,WeatherDisplay:10.37,2013-11-20 03:12:00,
2013-11-19 22:17:00,36.6,29.1,30.24,NNE,19,0.0,0.0,74,0.00,CLR,,0.00,WeatherDisplay:10.37,2013-11-20 03:17:00,
2013-11-19 22:22:00,36.3,28.5,30.25,NNE,19,0.0,0.0,73,0.00,CLR,,0.00,WeatherDisplay:10.37,2013-11-20 03:22:00,
2013-11-19 22:27:00,36.2,27.7,30.25,NNE,19,0.0,0.0,71,0.00,CLR,,0.00,WeatherDisplay:10.37,2013-11-20 03:27:00,
2013-11-19 22:32:00,36.5,28.0,30.25,NNE,19,0.0,0.0,71,0.00,CLR,,0.00,WeatherDisplay:10.37,2013-11-20 03:32:00,
2013-11-19 22:37:00,36.8,27.9,30.25,NNE,19,0.0,0.0,70,0.00,CLR,,0.00,WeatherDisplay:10.37,2013-11-20 03:37:00,
2013-11-19 22:42:00,37.1,28.2,30.26,NNE,19,0.0,0.0,70,0.00,CLR,,0.00,WeatherDisplay:10.37,2013-11-20 03:42:00,
2013-11-19 22:47:00,37.4,28.5,30.26,NNE,19,0.0,0.0,70,0.00,CLR,,0.00,WeatherDisplay:10.37,2013-11-20 03:47:00,
2013-11-19 22:52:00,37.6,28.0,30.26,NNE,19,0.0,0.0,68,0.00,CLR,,0.00,WeatherDisplay:10.37,2013-11-20 03:52:00,
2013-11-19 22:57:00,38.3,28.7,30.25,NNE,19,0.0,0.0,68,0.00,CLR,,0.00,WeatherDisplay:10.37,2013-11-20 03:57:00,
2013-11-19 23:02:00,38.9,27.8,30.25,NNE,19,0.2,1.0,64,0.00,CLR,,0.00,WeatherDisplay:10.37,2013-11-20 04:02:00,
2013-11-19 23:07:00,39.7,28.5,30.25,NE,35,0.0,0.0,64,0.00,CLR,,0.00,WeatherDisplay:10.37,2013-11-20 04:07:00,
2013-11-19 23:12:00,40.6,27.0,30.25,East,90,1.5,2.3,58,0.00,CLR,,0.00,WeatherDisplay:10.37,2013-11-20 04:12:00,
2013-11-19 23:17:00,41.4,26.9,30.24,East,85,1.6,2.3,56,0.00,CLR,,0.00,WeatherDisplay:10.37,2013-11-20 04:17:00,
2013-11-19 23:22:00,41.9,26.9,30.25,East,84,0.7,2.3,55,0.00,CLR,,0.00,WeatherDisplay:10.37,2013-11-20 04:22:00,
2013-11-19 23:27:00,42.1,27.1,30.25,East,83,0.0,1.2,55,0.00,CLR,,0.00,WeatherDisplay:10.37,2013-11-20 04:27:00,
2013-11-19 23:32:00,42.2,27.2,30.25,ENE,74,1.0,1.0,55,0.00,CLR,,0.00,WeatherDisplay:10.37,2013-11-20 04:32:00,
2013-11-19 23:37:00,42.3,26.4,30.25,NE,56,3.6,9.2,53,0.00,CLR,,0.00,WeatherDisplay:10.37,2013-11-20 04:37:00,
2013-11-19 23:42:00,42.5,26.6,30.27,East,80,4.2,5.0,53,0.00,CLR,,0.00,WeatherDisplay:10.37,2013-11-20 04:42:00,
2013-11-19 23:47:00,42.5,27.0,30.27,East,83,4.7,9.2,54,0.00,CLR,,0.00,WeatherDisplay:10.37,2013-11-20 04:47:00,
2013-11-19 23:52:00,42.4,26.5,30.26,ENE,74,3.6,10.4,53,0.00,CLR,,0.00,WeatherDisplay:10.37,2013-11-20 04:52:00,
2013-11-19 23:57:00,42.3,25.9,30.26,ENE,75,3.9,6.9,52,0.00,CLR,,0.00,WeatherDisplay:10.37,2013-11-20 04:57:00,